Regional Weather Roundup
Issued by NWS

Home | Current Version | Previous Version | Text Only | Print | Product List | Glossary On
Versions: 1 2 3 4 5 6 7 8 9 10 11 12 13 14 15 16 17 18 19 20 21 22 23 24 25 26 27 28 29 30 31 32 33 34 35 36 37 38 39 40 41 42 43 44 45 46 47 48 49 50
000
ASUS42 KFFC 061110
RWRGA
WEATHER ROUNDUP FOR GEORGIA
NATIONAL WEATHER SERVICE PEACHTREE CITY GA
700 AM EDT SAT JUN 06 2020

NOTE: "FAIR" INDICATES FEW OR NO CLOUDS BELOW 12,000 FEET WITH NO
SIGNIFICANT WEATHER AND/OR OBSTRUCTIONS TO VISIBILITY.

* = USE WITH CAUTION. THE STATIONS MARKED WITH AN ASTERISK MAY NOT
REPORT WEATHER SUCH AS PRECIPITATION, FOG, OR THUNDER AND ARE NOT
QUALITY CONTROLLED BY NWS.

THE REMARK "TC" DENOTES TEMPERATURE READING IN DEGREES CELSIUS.

GAZ001>058-061200-
NORTH GEORGIA

CITY           SKY/WX    TMP DP  RH WIND       PRES   REMARKS
ATLANTA        MOCLDY    70  66  87 CALM      30.01S
ATHENS         MOCLDY    70  67  90 CALM      30.00R
CHAMBLEE       MOCLDY    67  67 100 CALM      30.01R
PEACHTREE CITY MOCLDY    68  66  93 CALM      30.03R FOG
ROME           PTCLDY    69  67  93 CALM      30.01R
WEST ATLANTA   MOCLDY    67  65  93 CALM      30.01R
GAINESVILLE    CLOUDY    70  69  97 NW6       30.04R FOG
CARTERSVILLE   PTCLDY    67  64  90 CALM      30.02R


CITY           SKY/WX    TMP DP  RH WIND       PRES   REMARKS
DALTON*        FOG       72  70  94 CALM      30.04R VSB 1/2
LAWRENCEVILLE* MOCLDY    69  69 100 CALM      30.02R
MARIETTA       MOCLDY    67  66  95 CALM      30.01S
KENNESAW*      PTCLDY    68  66  93 CALM      30.03R
CANTON*        PTCLDY    68  68 100 CALM      30.05R FOG
BLAIRSVILLE*   FOG       62  62  99 CALM      30.08R VSB<1/4
$$

GAZ059>098-102>109-061200-
CENTRAL GEORGIA

CITY           SKY/WX    TMP DP  RH WIND       PRES   REMARKS
AUGUSTA-BUSH   CLOUDY    73  70  90 CALM      29.98R
AUGUSTA-DANIEL MOCLDY    73  68  84 SW5       30.00R
COLUMBUS       CLOUDY    70  69  97 CALM      30.01R
MACON          CLOUDY    69  67  93 CALM      30.02R
ROBINS AFB     MOCLDY    69  69 100 CALM      30.01R


CITY           SKY/WX    TMP DP  RH WIND       PRES   REMARKS
LAGRANGE*      FOG       66  65  96 CALM      30.02R VSB 3/4
SYLVANIA*      MOCLDY    74  72  93 W3        30.02R
MILLEDGEVILLE* CLOUDY    70  70 100 CALM      30.01R FOG
$$

GAZ099>101-110>166-061200-
SOUTH GEORGIA

CITY           SKY/WX    TMP DP  RH WIND       PRES   REMARKS
SAVANNAH       CLOUDY    75  72  90 S8        30.01R
VALDOSTA       CLOUDY    74  70  87 CALM      30.01R
ALMA           CLOUDY    73  70  90 CALM      30.01R
ST SIMONS      CLOUDY    76  72  87 SW5       30.01S
FT STEWART     CLOUDY    73  71  94 CALM      30.00R
ALBANY         CLOUDY    74  71  91 NW3       30.02R
HUNTER AFB     CLOUDY    74  71  89 SW3       29.99R
MOODY AFB      CLOUDY    73  72  94 CALM      30.01R
BRUNSWICK      CLOUDY    75  71  87 SW7       30.01S


CITY           SKY/WX    TMP DP  RH WIND       PRES   REMARKS
BAINBRIDGE*    CLOUDY    74  72  94 NE5       29.99R FOG
MOULTRIE*      MOCLDY    72  70  94 CALM      30.01R
VIDALIA*       MOCLDY    73  68  83 CALM      30.02S
WAYCROSS*      CLOUDY    74  69  83 CALM      30.02R
DOUGLAS*       CLOUDY    73  72  96 CALM      30.02S
$$




USA.gov is the U.S. government's official web portal to all federal, state and local government web resources and services.